Tracking 28790 objects as of 19-Apr-2024
HD Live streaming from Space Station
objects crossing your sky now

OPS 4682 DEB

Track OPS 4682 DEB now!
10-day predictions


NORAD ID: 38361
Int'l Code: 1965-027BN
Perigee: 1,245.4 km
Apogee: 1,294.7 km
Inclination: 90.2 °
Period: 110.8 minutes
Semi major axis: 7641 km
RCS: 0.0081 m2 (small)
Launch date: April 3, 1965
Source: United States (US)
Launch site: AIR FORCE WESTERN TEST RANGE (AFWTR)

Note: This is SATELLITE DEBRIS
Your satellite tracking list
Your tracking list is empty




NASA's NSSDC Master Catalog

Two Line Element Set (TLE):
1 38361U 65027BN  24109.10346652 -.00000017  00000-0 -80815-4 0  9990
2 38361  90.2410 354.3252 0032251 187.7984 172.2641 12.99783303483283
Source of the keplerian elements: AFSPC